Regional Weather Roundup
Issued by NWS

Home | Current Version | Previous Version | Text Only | Print | Product List | Glossary Off
Versions: 1 2 3 4 5 6 7 8 9 10 11 12 13 14 15 16 17 18 19 20 21 22 23 24 25 26 27 28 29 30 31 32 33 34 35 36 37 38 39 40 41 42 43 44 45 46 47 48 49 50

000
ASUS43 KLOT 251910
RWRIL

ILLINOIS REGIONAL WEATHER ROUNDUP
NATIONAL WEATHER SERVICE CHICAGO/ROMEOVILLE IL
100 PM CST SUN JAN 25 2015

NOTE: "FAIR" INDICATES FEW OR NO CLOUDS BELOW 12,000 FEET WITH NO
SIGNIFICANT WEATHER AND/OR OBSTRUCTIONS TO VISIBILITY.

* THESE STATIONS ARE NOT UNDER NWS QUALITY CONTROL. THEY ALSO MAY NOT
  REPORT WEATHER SUCH AS PRECIPITATION OR FOG.

ILZ001-002-007-009-015-016-024-252000-
NORTHWEST ILLINOIS

CITY           SKY/WX    TMP DP  RH WIND       PRES   REMARKS
MOLINE         LGT SNOW  30  25  81 NE18G30   29.82R WCI  18
STERLING*      CLOUDY    30  23  74 NE15G23   29.82R WCI  19
SAVANNA*       CLOUDY    32  23  68 N16G22    29.86R WCI  21
$$

ILZ003-004-008-010-011-017-018-252000-
NORTH CENTRAL ILLINOIS

CITY           SKY/WX    TMP DP  RH WIND       PRES   REMARKS
ROCKFORD       CLOUDY    29  18  63 NE23G30   29.87R WCI  15
FREEPORT*      CLOUDY    28  19  68 NE23G30   29.88R WCI  14
ROCHELLE*      CLOUDY    28  22  79 NE25G33   29.82R WCI  13
DE KALB*       CLOUDY    27  21  80 NE23      29.82R WCI  12
PERU*          LGT SNOW  31  29  92 NE22      29.78R WCI  18
$$

ILZ005-006-012>014-019>023-252000-
NORTHEAST ILLINOIS

CITY           SKY/WX    TMP DP  RH WIND       PRES   REMARKS
CHICAGO-OHARE  LGT SNOW  29  25  85 NE22G32   29.81S FOG     WCI  15
CHICAGO-MIDWAY LGT SNOW  32  29  88 NE21      29.80R FOG     WCI  20
AURORA         LGT SNOW  31  24  75 NE24G31   29.79S WCI  17
LANSING*       LGT SNOW  31  30  95 NE18G25   29.77R WCI  19
JOLIET*        LGT SNOW  32  29  90 NE15G25   29.78R WCI  21
WAUKEGAN       CLOUDY    27  18  69 N18G28    29.85S WCI  14
DUPAGE AIRPORT LGT SNOW  29  24  82 NE22      29.80R WCI  15
KANKAKEE*      LGT SNOW  33  32  96 NE13      29.73S WCI  24
WHEELING       LGT SNOW  28  23  81 NE16G25   29.85S WCI  16
MORRIS*        LGT SNOW  32  32  99 NE10G18   29.76R VSB 1   WCI  24
ROMEOVILLE*    LGT RAIN  32  30  94 NE22G29   29.77S WCI  19
NORTHERLY ISL    N/A     29  28  96 MISG        N/A
$$

LMZ740>746-252000-
SOUTHERN LAKE MICHIGAN

STATION/POSITION SKY/WX   TEMP    WIND        PRES    VSBY  WAVE
                          AIR SEA DIR/SP/G                  HT/PER
                          (F)     (DEG/KT/KT) (MB)    (MI)  (FT/S)
WAUKEGAN HARBOR            28      30/ 28/ 28   N/A
HARRISON CRIB              29      30/ 25/ 29   N/A
BURNHAM HARBOR             29      30/ 21/ 23   N/A
CALUMET HARBOR             30      30/ 18/ 24   N/A
MICHIGAN CITY              28      20/ 21/ 23   N/A
$$

ILZ025>027-034>036-040-047-049-050-058-095>099-252000-
WEST-CENTRAL ILLINOIS

CITY           SKY/WX    TMP DP  RH WIND       PRES   REMARKS
QUINCY         LGT SNOW  34  32  92 NE17      29.69R FOG     WCI  23
GALESBURG*     LGT SNOW  30  28  93 NE24G33   29.76R WCI  16
MACOMB*        LGT RAIN  33  32  98 NE21G31   29.76R WCI  20
JACKSONVILLE*  CLOUDY    39  36  88 N16G22    29.65S WCI  30
PITTSFIELD*    LGT RAIN  38  36  92 N13G20    29.67R WCI  30
$$

ILZ028>032-037-038-041>044-048-051>054-059>061-252000-
CENTRAL ILLINOIS

CITY           SKY/WX    TMP DP  RH WIND       PRES   REMARKS
PONTIAC        LGT SNOW  34  34  99 NE21G26   29.72S WCI  23
BLOOMINGTON    LGT SNOW  33  33 100 NE22      29.68R FOG     WCI  21
DECATUR        CLOUDY    38  35  89 NE13      29.62S WCI  30
PEORIA         LGT SNOW  35  32  88 NE14G25   29.72R FOG     WCI  26
LACON*         LGT RAIN  32  30  94 NE13      29.75R WCI  22
LINCOLN*       CLOUDY    37  34  91 NE16G22   29.67R WCI  27
SPRINGFIELD    CLOUDY    38  35  89 N17       29.65R FOG     WCI  28
TAYLORVILLE    CLOUDY    37  36  93 N14       29.61S WCI  29
$$

ILZ033-039-045-046-055>057-062-063-252000-
EAST-CENTRAL ILLINOIS

CITY           SKY/WX    TMP DP  RH WIND       PRES   REMARKS
CHAMPAIGN      CLOUDY    38  36  92 NE13      29.62S FOG     WCI  30
DANVILLE*      LGT RAIN  36  35  96 NE12      29.61F WCI  28
RANTOUL*       DRIZZLE   36  35  96 NE17      29.64F WCI  25
MATTOON        CLOUDY    39  39 100 E3        29.58F FOG
PARIS*         CLOUDY    38  38 100 NE5       29.61F FOG     WCI  35
$$

ILZ079-100>102-252000-
SOUTHWEST ILLINOIS

CITY           SKY/WX    TMP DP  RH WIND       PRES   REMARKS
BELLEVILLE     LGT RAIN  46  46 100 NW8       29.57S FOG
CAHOKIA*       LGT RAIN  47  44  90 W10       29.58S FOG
SPARTA*        DRIZZLE   43  42  95 CALM      29.58F
$$

ILZ064>066-069>071-074>076-080>082-084>086-088>090-092>094-252000-
SOUTH-CENTRAL ILLINOIS

CITY           SKY/WX    TMP DP  RH WIND       PRES   REMARKS
CARBONDALE     LGT RAIN  44  41  89 SW7       29.57F FOG
CAIRO*         RAIN      43  43 100 SW8       29.61F
EFFINGHAM*     CLOUDY    42  39  88 CALM      29.60S
MARION         RAIN      43  41  93 S8        29.58F
MT. VERNON     CLOUDY    43  37  81 S5        29.58S
CENTRALIA*     RAIN      42  39  90 CALM      29.57F
SALEM*         CLOUDY    45  41  85 CALM      29.57F
METROPOLIS*    RAIN      42  42 100 S7        29.60F
$$

ILZ067-068-072-073-078-083-087-091-252000-
SOUTHEAST ILLINOIS

CITY           SKY/WX    TMP DP  RH WIND       PRES   REMARKS
LAWRENCEVILLE  CLOUDY    41  39  93 S7        29.60F FOG
FLORA*         DRIZZLE   41  40  97 CALM      29.59S
FAIRFIELD*     DRIZZLE   42  41  97 S3        29.57F
HARRISBURG*    RAIN      42  42  99 S7        29.59F
ROBINSON*      LGT RAIN  40  39  97 E5        29.61F
CARMI*         RAIN      43  43 100 S7        29.59S
$$

ABBREVIATIONS USED IN REMARKS
   TC - TEMPERATURE IN CELSIUS
  WCI - WIND CHILL INDEX
   HX - HEAT INDEX
  VSB - VISIBILITY
$$



USA.gov is the U.S. government's official web portal to all federal, state and local government web resources and services.